sat.trackr.live / text

‹ back to catalog

STARLINK-33803

NORAD 63517 · 2025-071AA

PAYLOAD ACTIVE UNKNOWN

§ Identity

Operator
Country
US
Launch date
2025-04-07
Launch site
AFWTR
Launch vehicle
Mass (kg)
RCS (m²)

Purposes: comms

External: N2YO · Heavens-Above · Gunter

§ Orbital elements

Epoch: 2026-09-20T11:09:17.187264Z

Period
93.85 min
Inclination
53.1621°
Eccentricity
0.0000935
Mean motion
15.34411670 rev/d
Perigee alt
462.0 km
Apogee alt
463.3 km
Semi-major
6,840.8 km
B*
5.7803e-4
RAAN
313.5531°
Arg perigee
88.1100°
Mean anomaly
272.0010°
Rev number
8,261

§ Raw data

STARLINK-338031 63517U 25071AA  26263.46478226  .00019211  00000+0  57803-3 0  99942 63517  53.1621 313.5531 0000935  88.1100 272.0010 15.34411670 82619

JSON: /api/v1/satellites/63517 · /tle

For live sub-satellite position, see the globe view (requires WebGL).

§ Visibility from observer

Set your observer location to see the next 7 days of passes ≥ 10°. The values pass through the URL so the page stays shareable.

No JS? Fill the form by hand. The geolocation button needs JavaScript.